Fosston, MN

3:09 PM CDT on August 29, 2016 (GMT -0500)
Fosston Municipal

Weather History for KFSE - April, 2013

Change the Weather History Date:

Tuesday, April 9, 2013

  Actual Average Record
Temperature  
Mean Temperature 18 °F -  
Max Temperature 30 °F 48 °F 81 °F (1977)
Min Temperature 6 °F 26 °F 3 °F (1997)
Degree Days  
Heating Degree Days 47    
Moisture  
Dew Point 10 °F    
Average Humidity 71    
Maximum Humidity 85    
Minimum Humidity 55    
Precipitation  
Precipitation 0.00 in - - ()
Sea Level Pressure  
Sea Level Pressure 30.27 in    
Wind  
Wind Speed 15 mph (NNW)    
Max Wind Speed 23 mph    
Max Gust Speed 26 mph    
Visibility 10 miles    
Events      
Averages and records for this station are not official NWS values.
T = Trace of Precipitation, MM = Missing Value Source: NWS Daily Summary

Daily Weather History Graph

Daily Weather History Graph

Search for Another Location

Airport or City:

Trip Planner

Search our weather history database for the weather conditions in past years. The results will help you decide how hot, cold, wet, or windy it might be!

Date:

Astronomy

Apr. 09, 2013 Rise Set
Actual Time 6:45 AM CDT 8:04 PM CDT
Civil Twilight 6:13 AM CDT 8:36 PM CDT
Nautical Twilight 5:35 AM CDT 9:15 PM CDT
Astronomical Twilight 4:54 AM CDT 9:56 PM CDT
Moon 6:10 AM CDT (4/9) 7:42 PM CDT (4/9)
Length of Visible Light 14h 22m
Length of Day
13h 19m
Waning Crescent, 1% of the Moon is Illuminated
Apr 9
Waning Crescent
Apr 10
New
Apr 18
First Quarter
Apr 25
Full
May 2
Last Quarter

Hourly Weather History & Observations

Time (CDT) Temp. Windchill Dew Point Humidity Pressure Visibility Wind Dir Wind Speed Gust Speed Precip Events Conditions
12:15 AM 17.6 °F 0.9 °F 10.4 °F 73% 30.23 in 10.0 mi NNW 20.7 mph - N/A   Overcast
12:35 AM 15.8 °F 0.9 °F 10.4 °F 79% 30.23 in 10.0 mi NNW 15.0 mph - N/A   Overcast
12:55 AM 15.8 °F 0.3 °F 10.4 °F 79% 30.23 in 10.0 mi NNW 16.1 mph 23.0 mph N/A   Overcast
1:15 AM 15.8 °F -1.1 °F 8.6 °F 73% 30.24 in 10.0 mi NNW 19.6 mph - N/A   Overcast
1:35 AM 14.0 °F -2.5 °F 8.6 °F 79% 30.25 in 10.0 mi NNW 17.3 mph - N/A   Overcast
1:55 AM 12.2 °F -3.7 °F 8.6 °F 85% 30.24 in 10.0 mi NNW 15.0 mph - N/A   Scattered Clouds
2:15 AM 12.2 °F -3.7 °F 6.8 °F 79% 30.22 in 10.0 mi NNW 15.0 mph - N/A   Clear
2:35 AM 10.4 °F -4.1 °F 6.8 °F 85% 30.22 in 10.0 mi NNW 11.5 mph - N/A   Clear
2:55 AM 10.4 °F -4.1 °F 6.8 °F 85% 30.25 in 10.0 mi NNW 11.5 mph - N/A   Clear
3:15 AM 10.4 °F -4.1 °F 6.8 °F 85% 30.25 in 10.0 mi NNW 11.5 mph - N/A   Clear
3:35 AM 10.4 °F -3.3 °F 6.8 °F 85% 30.25 in 10.0 mi NNW 10.4 mph - N/A   Clear
3:55 AM 10.4 °F -4.1 °F 5.0 °F 79% 30.26 in 10.0 mi NNW 11.5 mph - N/A   Clear
4:15 AM 10.4 °F -5.4 °F 3.2 °F 73% 30.25 in 10.0 mi NNW 13.8 mph - N/A   Clear
4:35 AM 10.4 °F -4.1 °F 3.2 °F 73% 30.25 in 10.0 mi North 11.5 mph - N/A   Clear
4:55 AM 10.4 °F -3.3 °F 3.2 °F 73% 30.25 in 10.0 mi NNW 10.4 mph - N/A   Clear
5:15 AM 10.4 °F -4.8 °F 3.2 °F 73% 30.26 in 10.0 mi NNW 12.7 mph - N/A   Clear
5:35 AM 8.6 °F -7.0 °F 3.2 °F 79% 30.25 in 10.0 mi NNW 12.7 mph - N/A   Clear
5:55 AM 8.6 °F -7.0 °F 3.2 °F 79% 30.24 in 10.0 mi NNW 12.7 mph - N/A   Clear
6:15 AM 8.6 °F -7.0 °F 1.4 °F 73% 30.25 in 10.0 mi North 12.7 mph - N/A   Clear
6:35 AM 6.8 °F -9.3 °F 1.4 °F 79% 30.26 in 10.0 mi North 12.7 mph - N/A   Clear
6:55 AM 6.8 °F -9.3 °F 1.4 °F 79% 30.26 in 10.0 mi North 12.7 mph - N/A   Clear
7:15 AM 6.8 °F -9.3 °F 1.4 °F 79% 30.27 in 10.0 mi North 12.7 mph - N/A   Clear
7:35 AM 6.8 °F -10.0 °F 1.4 °F 79% 30.27 in 10.0 mi North 13.8 mph - N/A   Clear
7:55 AM 8.6 °F -8.3 °F 3.2 °F 79% 30.27 in 10.0 mi North 15.0 mph - N/A   Mostly Cloudy
8:15 AM 8.6 °F -7.0 °F 3.2 °F 79% 30.27 in 10.0 mi North 12.7 mph - N/A   Overcast
8:35 AM 10.4 °F -3.3 °F 5.0 °F 79% 30.27 in 10.0 mi North 10.4 mph - N/A   Overcast
8:55 AM 12.2 °F -0.2 °F 6.8 °F 79% 30.29 in 10.0 mi North 9.2 mph - N/A   Overcast
9:15 AM 12.2 °F -1.0 °F 6.8 °F 79% 30.29 in 10.0 mi North 10.4 mph - N/A   Overcast
9:35 AM 12.2 °F -1.8 °F 6.8 °F 79% 30.29 in 10.0 mi North 11.5 mph - N/A   Scattered Clouds
9:55 AM 12.2 °F -1.0 °F 6.8 °F 79% 30.29 in 10.0 mi North 10.4 mph - N/A   Clear
10:15 AM 15.8 °F 4.2 °F 6.8 °F 68% 30.30 in 10.0 mi North 9.2 mph - N/A   Clear
10:35 AM 15.8 °F 3.4 °F 8.6 °F 73% 30.31 in 10.0 mi North 10.4 mph - N/A   Clear
10:55 AM 17.6 °F 5.7 °F 8.6 °F 68% 30.30 in 10.0 mi North 10.4 mph - N/A   Clear
11:15 AM 19.4 °F 8.6 °F 8.6 °F 63% 30.31 in 10.0 mi North 9.2 mph - N/A   Clear
11:36 AM 19.4 °F 7.9 °F 10.4 °F 68% 30.32 in 10.0 mi North 10.4 mph - N/A   Clear
11:55 AM 21.2 °F 8.9 °F 12.2 °F 68% 30.32 in 10.0 mi North 12.7 mph - N/A   Clear
12:15 PM 23.0 °F 11.1 °F 12.2 °F 63% 30.32 in 10.0 mi NNW 12.7 mph - N/A   Clear
12:35 PM 23.0 °F 11.1 °F 12.2 °F 63% 30.32 in 10.0 mi NNW 12.7 mph - N/A   Clear
12:55 PM 24.8 °F 14.0 °F 12.2 °F 59% 30.32 in 10.0 mi NNW 11.5 mph - N/A   Clear
1:15 PM 24.8 °F 13.4 °F 12.2 °F 59% 30.31 in 10.0 mi NNW 12.7 mph - N/A   Clear
1:35 PM 26.6 °F 14.7 °F 14.0 °F 59% 30.30 in 10.0 mi NNW 15.0 mph - N/A   Clear
1:55 PM 26.6 °F 14.7 °F 14.0 °F 59% 30.30 in 10.0 mi NNW 15.0 mph - N/A   Clear
2:15 PM 26.6 °F 13.8 °F 15.8 °F 64% 30.30 in 10.0 mi NNW 17.3 mph - N/A   Clear
2:35 PM 26.6 °F 13.8 °F 15.8 °F 64% 30.29 in 10.0 mi NNW 17.3 mph - N/A   Clear
2:55 PM 28.4 °F 16.2 °F 15.8 °F 59% 30.29 in 10.0 mi NNW 17.3 mph - N/A   Clear
3:15 PM 28.4 °F 15.8 °F 15.8 °F 59% 30.27 in 10.0 mi NNW 18.4 mph - N/A   Clear
3:35 PM 28.4 °F 14.4 °F 15.8 °F 59% 30.26 in 10.0 mi North 23.0 mph - N/A   Clear
3:55 PM 30.2 °F 17.4 °F 17.6 °F 60% 30.25 in 10.0 mi North 20.7 mph 26.5 mph N/A   Clear
4:15 PM 30.2 °F 17.4 °F 15.8 °F 55% 30.25 in 10.0 mi North 20.7 mph 26.5 mph N/A   Clear
4:35 PM 30.2 °F 17.8 °F 15.8 °F 55% 30.29 in 10.0 mi NNW 19.6 mph - N/A   Clear
4:55 PM 28.4 °F 15.8 °F 15.8 °F 59% 30.28 in 10.0 mi NNW 18.4 mph 24.2 mph N/A   Clear
5:15 PM 28.4 °F 15.8 °F 15.8 °F 59% 30.27 in 10.0 mi NNW 18.4 mph - N/A   Clear
5:35 PM 28.4 °F 15.1 °F 15.8 °F 59% 30.26 in 10.0 mi North 20.7 mph - N/A   Clear
5:55 PM 30.2 °F 18.5 °F 15.8 °F 55% 30.27 in 10.0 mi North 17.3 mph - N/A   Clear
6:15 PM 28.4 °F 16.6 °F 15.8 °F 59% 30.28 in 10.0 mi NNW 16.1 mph - N/A   Clear
6:35 PM 26.6 °F 15.2 °F 15.8 °F 64% 30.28 in 10.0 mi North 13.8 mph - N/A   Clear
6:55 PM 26.6 °F 15.2 °F 14.0 °F 59% 30.28 in 10.0 mi North 13.8 mph - N/A   Clear
7:15 PM 24.8 °F 12.4 °F 14.0 °F 64% 30.27 in 10.0 mi NNW 15.0 mph - N/A   Clear
7:35 PM 24.8 °F 12.4 °F 15.8 °F 69% 30.26 in 10.0 mi NNW 15.0 mph - N/A   Clear
7:55 PM 23.0 °F 10.1 °F 14.0 °F 68% 30.25 in 10.0 mi NNW 15.0 mph - N/A   Clear
8:15 PM 21.2 °F 7.8 °F 14.0 °F 74% 30.26 in 10.0 mi NNW 15.0 mph - N/A   Clear
8:35 PM 21.2 °F 8.3 °F 14.0 °F 74% 30.25 in 10.0 mi North 13.8 mph - N/A   Clear
8:55 PM 21.2 °F 7.8 °F 12.2 °F 68% 30.25 in 10.0 mi North 15.0 mph - N/A   Clear
9:15 PM 19.4 °F 5.5 °F 12.2 °F 74% 30.26 in 10.0 mi North 15.0 mph - N/A   Clear
9:55 PM 19.4 °F 8.6 °F 12.2 °F 74% 30.28 in 10.0 mi North 9.2 mph - N/A   Clear
10:15 PM 19.4 °F 7.2 °F 12.2 °F 74% 30.28 in 10.0 mi North 11.5 mph - N/A   Clear
10:35 PM 19.4 °F 7.9 °F 12.2 °F 74% 30.28 in 10.0 mi North 10.4 mph - N/A   Clear
10:55 PM 19.4 °F 7.2 °F 12.2 °F 74% 30.27 in 10.0 mi North 11.5 mph - N/A   Clear
11:15 PM 19.4 °F 7.2 °F 12.2 °F 74% 30.27 in 10.0 mi North 11.5 mph - N/A   Clear
11:35 PM 19.4 °F 8.6 °F 12.2 °F 74% 30.28 in 10.0 mi North 9.2 mph - N/A   Clear
11:55 PM 17.6 °F 8.2 °F 12.2 °F 79% 30.28 in 10.0 mi North 6.9 mph - N/A   Clear